Location: *
(38.9800°N, 16.0500°E)
Time: 05:53:05
(UTC+00:00)

SL-16 R/B - Pass Details

Date: 07 April 2020
Orbit: 841 x 849 km, 71.0° (Epoch: 26 May)

Event Time Altitude Azimuth Distance (km) Brightness Sun altitude
Rises 03:29:11 0° 326° (NNW) 3,405 5.2 -12.4°
Reaches altitude 10° 03:31:52 10° 317° (NW) 2,467 4.4 -11.9°
Maximum altitude 03:36:47 31° 257° (WSW) 1,433 2.9 -11.0°
Drops below altitude 10° 03:41:41 10° 196° (SSW) 2,458 4.3 -10.1°
Sets 03:44:21 0° 186° (S) 3,390 5.1 -9.6°
